User: anonymous   Login
Location: Theydon Bois
(51.6750°N, 0.1050°E)
Time: 17:55:23
(UTC+00:00)
Language:

Cosmos 1821 Rocket - Orbit

View from above orbital plane
View from above orbital plane
View from above satellite
View from above satellite

Ground track
Ground track

The orbit data is extracted from the following two-line orbital elements,

1 17526U 87017B   17345.87062294  .00000016  00000-0  48874-6 0  9996
2 17526  82.9034 267.4384 0040161 178.5373 181.5909 13.76821276530799
Epoch (UTC): 11 December 2017 20:53:41
Eccentricity: 0.0040161
inclination: 82.9034°
perigee height: 945 km
apogee height: 1005 km
right ascension of ascending node: 267.4384°
argument of perigee: 178.5373°
revolutions per day: 13.76821276
mean anomaly at epoch: 181.5909°
orbit number at epoch: 53079

The dashed part of the orbit path shows where the satellite is in the earth's shadow,  

DLR